Voltar ao catálogo

DELTA 1 DEB

AtivoLEO
NORAD 10747·DEBRIS·🇺🇸 United States

Lançado Jul 29, 1976 de Vandenberg Space Force Base

Loading…

Próximas Passagens (próximas 24 horas)

TLE

AtualizadoSource: Space-Track

Época: Sep 14, 2026, 11:24 UTC

1 10747U 76077AU  26257.47520872  .00002769  00000-0  33272-2 0  9996
2 10747 101.0913 262.7189 0130775 182.2420 342.0743 13.64355324420503

Acompanhe DELTA 1 DEB em tempo real com AllMySat

Download on the App Store